This demonstration page uses our WeatherBlox Daily Observations layout. Learn more.

Left ArrowRight Arrow

Hourly Observations for August 12, 2022

Temp ( °F °C ) Dew Point ( °F °C ) Humidity (%) Winds ( mph kmh ) Pressure ( in mb ) Visibility ( mi km ) Precip ( " mm )
12:53 am 00:53 Clear 73 22.8 70 21.1 90 90 SW 5 7 30.02 1017 10 16 0.00 0.00
1:53 am 01:53 Clear 73 22.8 70 21.1 90 90 SSW 5 7 30.01 1016 10 16 0.00 0.00
2:53 am 02:53 Mostly Clear 72 22.2 70 21.1 93 93 W 3 6 30.01 1016 10 16 0.00 0.00
3:43 am 03:43 Cloudy 72 22.2 70 21.1 93 93 SW 6 9 30.01 1016 10 16 0.00 0.00
3:53 am 03:53 Cloudy 72 22.2 70 21.1 93 93 SW 5 7 30.01 1016 10 16 0.00 0.00
5:00 am 05:00 Mostly Cloudy 72 22.2 70 21.1 93 93 S 5 7 30.00 1016 10 16 0.00 0.00
5:53 am 05:53 Mostly Cloudy 72 22.2 71 21.7 97 97 SSW 5 7 30.01 1016 10 16 0.00 0.00
6:00 am 06:00 Cloudy 72 22.2 70 21.1 93 93 S 5 7 30.01 1016 10 16 0.00 0.00
6:53 am 06:53 Cloudy 72 22.2 71 21.7 97 97 SW 6 9 30.02 1017 10 16 0.00 0.00
7:53 am 07:53 Cloudy 73 22.8 71 21.7 94 94 WSW 6 9 30.04 1017 10 16 0.00 0.00
8:53 am 08:53 Cloudy with Light Rain 73 22.8 71 21.7 94 94 W 5 7 30.04 1017 5 8 0.01 0.25
9:53 am 09:53 Cloudy 74 23.3 72 22.2 94 94 SW 6 9 30.05 1018 10 16 0.01 0.13
10:53 am 10:53 Cloudy 75 23.9 72 22.2 90 90 WNW 6 9 30.05 1018 10 16 0.00 0.00
11:00 am 11:00 Cloudy 76 24.4 73 22.8 91 91 W 5 7 30.04 1017 10 16 0.00 0.00
11:27 am 11:27 Mostly Cloudy 80 26.7 72 22.2 76 76 W 9 15 30.03 1017 10 16 0.00 0.00
11:53 am 11:53 Partly Cloudy 82 27.8 73 22.8 74 74 undefined N/A 30.04 1017 10 16 0.00 0.00
12:13 pm 12:13 Mostly Cloudy 82 27.8 71 21.7 69 69 NW 6 9 30.01 1016 10 16 0.00 0.00
12:53 pm 12:53 Mostly Cloudy 84 28.9 72 22.2 67 67 NNW 6 9 30.01 1016 10 16 0.00 0.00
1:00 pm 13:00 Partly Cloudy 84 28.9 71 21.7 65 65 NNW 7 11 29.99 1016 10 16 0.00 0.00
1:53 pm 13:53 Partly Cloudy 87 30.6 71 21.7 59 59 N 6 9 29.99 1016 10 16 0.00 0.00
2:53 pm 14:53 Partly Cloudy 87 30.6 68 20 53 53 VRB 6 9 29.98 1015 10 16 0.00 0.00
3:53 pm 15:53 Sunny 88 31.1 68 20 52 52 NW 10 17 29.96 1015 10 16 0.00 0.00
4:53 pm 16:53 Sunny 88 31.1 66 18.9 48 48 NW 8 13 29.96 1015 10 16 0.00 0.00
5:53 pm 17:53 Sunny 88 31.1 63 17.2 43 43 N 8 13 29.96 1014 10 16 0.00 0.00
6:53 pm 18:53 Sunny 87 30.6 65 18.3 48 48 NNW 9 15 29.96 1014 10 16 0.00 0.00
7:53 pm 19:53 Sunny 83 28.3 65 18.3 55 55 NNW 5 7 29.96 1015 10 16 0.00 0.00
8:53 pm 20:53 Clear 79 26.1 65 18.3 62 62 Calm 29.98 1015 10 16 0.00 0.00
9:53 pm 21:53 Clear 77 25 65 18.3 66 66 NNE 3 6 29.98 1015 10 16 0.00 0.00
10:53 pm 22:53 Clear 75 23.9 65 18.3 71 71 Calm 30.00 1016 10 16 0.00 0.00
11:53 pm 23:53 Clear 73 22.8 66 18.9 79 79 Calm 30.01 1016 10 16 0.00 0.00

Powered by AerisWeather